Regional Weather Roundup
Issued by NWS

Home | Current Version | Previous Version | Text Only | Print | Product List | Glossary On
Versions: 1 2 3 4 5 6 7 8 9 10 11 12 13 14 15 16 17 18 19 20 21 22 23 24 25 26 27 28 29 30 31 32 33 34 35 36 37 38 39 40 41 42 43 44 45 46 47 48 49 50
000
ASUS42 KTAE 310416
RWRTAE
RWRTAE
North Florida/South Alabama/Southwest Georgia Weather Roundup
National Weather Service Tallahassee Florida
1200 AM EDT SAT JUL 31 2021

Note: "fair" indicates few or no clouds below 12,000 feet with no
significant weather and/or obstructions to visibility.

!FLZ017-115-028-034-025-310500
...North Florida...

CITY           SKY/WX    TMP DP  RH WIND       PRES   REMARKS
TALL INTL ARPT CLEAR     79  76  90 SW3       30.03R
FSU LOVE BLDG    N/A     82  75  78 S6          N/A
APALACHICOLA   CLEAR     81  80  97 CALM      30.03R HX  91
PERRY          NOT AVBL
CROSS CITY     CLEAR     79  77  95 S3        30.04S
JACKSONVILLE   PTCLDY    80  75  84 SW8       30.02R
$$

!FLZ112-006-005-002-011-310500
...Florida Panhandle...

CITY           SKY/WX    TMP DP  RH WIND       PRES   REMARKS
MARIANNA       CLEAR     83  77  82 W3        30.01S HX  92
BONIFAY        FAIR      81  78  91 CALM      30.03S
PANAMA CITY NW FAIR      83  80  91 CALM      30.02R HX  95
TYNDALL AFB    MOCLDY    85  79  83 NW5       30.02R HX  98
TYND DRONE APT   N/A     86  81  86 W5        30.01R HX 102
DE FUNIAK SPR  FAIR      81  78  91 CALM      30.04F
EGLIN AFB      CLEAR     83  79  88 NW3       30.02S HX  94
DESTIN         MOCLDY    87  80  79 NW3       30.02S HX 103
HURLBURT       PTCLDY    84  80  87 CALM      30.01S HX  96
CRESTVIEW      CLEAR     81  79  94 CALM      30.04S FOG     HX  90
PENSACOLA      PTCLDY    85  80  85 W5        30.03S HX  99
$$

!ALZ063-066-310500
...South Alabama...

CITY           SKY/WX    TMP DP  RH WIND       PRES   REMARKS
DOTHAN         CLEAR     81  78  91 NW6       30.06S
OZARK CAIRNS   CLEAR     79  79  99 CALM      30.02S
FT RUCKER HELI CLEAR     78  77  96 CALM      30.03S
RUCKER HELI 3  FAIR      81  76  85 CALM      30.02S
RUCKER HELI 2  FAIR      80  79  98 CALM      30.01S
FLORALA APT    CLEAR     80  75  84 CALM      30.05F
ANDALUSIA      CLEAR     84  76  76 CALM      30.04S HX  93
TROY           CLEAR     80  75  84 CALM      30.04S
EUFALA         FAIR      79  76  90 CALM      30.02S FOG
MOBILE         PTCLDY    81  79  94 CALM      30.05S HX  90
$$

!GAZ120>161-310500
...Southwest and South Central Georgia...

CITY           SKY/WX    TMP DP  RH WIND       PRES   REMARKS
THOMASVILLE    MOCLDY    81  77  89 SW6       30.05R
BAINBRIDGE     PTCLDY    80  76  89 SW5       30.03S
MOODY AFB      PTCLDY    82  76  82 SW6       30.02R
VALDOSTA       PTCLDY    81  77  88 CALM      30.04R
MOULTRIE       MOCLDY    81  77  89 CALM      30.04S
BLAKELY        PTCLDY    77  75  94 CALM      30.03R FOG
ALBANY         CLEAR     84  77  79 CALM      30.03R HX  94
TIFTON         MOCLDY    83  78  83 SW5       30.02S HX  94
FITZGERALD     FAIR      79  77  94 CALM      30.02S
CORDELE        FAIR      80  75  86 CALM      30.03S
AMERICUS       NOT AVBL
HOMERVILLE     FAIR      82  77  86 SW6       30.03S
$$

!GMZ750-755-770-775-310500
...Coastal and Buoy Obs...

STATION/POSITION TIME  TEMP    WIND        PRES    VSBY  WAVE
                       AIR SEA DIR/SP/G                  HT/PER
                 (UTC) (F)     (DEG/KT/KT) (MB)    (MI)  (FT/S)
KEATON BEACH     0400   84     240/ 11/ 13 1017.3R
CEDAR KEY        0400   84     240/  7/  9 1017.7R
C TOWER          0400   84     300/  4/  5 1017.3R
APALACHICOLA BUO 0400   83 85  240/ 10/ 12 1016.8
PANAMA CITY BUOY 0400   85 85  280/  8/ 10 1017.8
MOBILE BUOY      0400   85     280/ 10/ 10 1017.5
ORANGE BCH AL BU 0400   87     270/ 14/ 16   N/A
$$



USA.gov is the U.S. government's official web portal to all federal, state and local government web resources and services.